Location: Helstorf
(52.5868°N, 9.5862°E)
Time: 08:27:57
(UTC+00:00)

Cosmos 2360 Rocket - Pass Details

Date: 15 May 2026
Orbit: 831 x 845 km, 71.0° (Epoch: 6 June)

Event Time Altitude Azimuth Distance (km) Brightness Sun altitude
Rises 21:44:27 0° 324° (NW) 3,417 7.0 -15.5°
Reaches altitude 10° 21:47:08 10° 314° (NW) 2,477 5.7 -15.7°
Maximum altitude 21:52:04 32° 254° (WSW) 1,428 3.4 -16.0°
Enters shadow 21:55:44 16° 201° (SSW) 2,066 3.8 -16.2°
